User: anonymous   Login
Location: Unspecified
(0.0000°N, 0.0000°E)
Time: 03:09:59
(UTC+00:00)
Language:

GGSE 5 - Orbit

View from above orbital plane
View from above orbital plane
View from above satellite
View from above satellite

Ground track
Ground track

The orbit data is extracted from the following two-line orbital elements,

1 02834U 67053D   18172.70967552 -.00000045  00000-0  56911-5 0  9995
2 02834  69.9731 257.3426 0006544  10.6642 349.4601 13.95794026599580
Epoch (UTC): 21 June 2018 17:01:55
Eccentricity: 0.0006544
inclination: 69.9731°
perigee height: 903 km
apogee height: 913 km
right ascension of ascending node: 257.3426°
argument of perigee: 10.6642°
revolutions per day: 13.95794026
mean anomaly at epoch: 349.4601°
orbit number at epoch: 59958

The dashed part of the orbit path shows where the satellite is in the earth's shadow,  

DLR